Lid_Strength_Index
1 1 1 1 2 1 2 2 3 4 5 5 5 4 2 3 2 2 2 2 3 4
2 1 1 1 1 1 3 5 5 5 5 4 4 3 2 3 2 2 2 2 2 3
2 1 1 1 2 2 3 5 5 5 6 5 3 2 2 2 2 2 2 3 2 2
1 2 1 1 4 4 4 5 6 5 4 3 3 2 2 2 2 3 2 1 1 0
1 1 1 3 4 3 4 4 4 3 3 3 2 1 1 2 2 2 2 2 1 0
1 2 3 5 3 3 4 3 3 3 3 2 1 2 2 2 1 1 2 1 0 0
1 2 3 3 1 1 1 2 1 1 1 1 2 2 2 2 2 2 2 2 1 1
1 2 2 1 1 1 1 1 1 1 1 2 1 3 2 2 1 1 1 2 3 3
2 2 3 1 1 1 1 1 2 1 2 2 4 7 7 4 3 4 3 4 4 4
2 2 2 1 1 1 1 1 2 2 3 4 6 9 9 7 4 4 4 4 5 6
3 2 1 1 1 1 1 2 3 3 3 5 7 9 9 8 4 4 4 6 6 8
2 2 1 1 1 2 2 3 4 4 5 6 7 10 9 7 4 5 6 7 8 8
1 2 2 2 3 3 3 4 5 5 6 8 7 11 10 8 6 7 8 8 8 9
1 3 3 3 3 3 4 5 5 6 6 6 9 7 9 9 7 8 9 9 10 10